Location: La Oliva
(42.2466°N, 2.9955°E)
Time: 08:13:53
(UTC+00:00)

Cosmos 1745 Rocket - Pass Details

Date: 22 April 2021
Orbit: 953 x 998 km, 83.0° (Epoch: 07 May)

Event Time Altitude Azimuth Distance (km) Brightness Sun altitude
Rises 21:45:00 0° 355° (N) 3,708 7.9 -28.6°
Reaches altitude 10° 21:47:35 10° 359° (N) 2,749 7.0 -28.8°
Enters shadow 21:53:25 58° 63° (ENE) 1,127 4.2 -29.4°
